Hyannis, MA

12:00 AM EDT on April 24, 2017 (GMT -0400)
Barnstable Municipal-Boardman-Polando Field

Weather History for KHYA - September, 2015

Change the Weather History Date:

Tuesday, September 29, 2015

  Actual Average Record
Temperature  
Mean Temperature 68 °F -  
Max Temperature 75 °F 67 °F 80 °F (1948)
Min Temperature 62 °F 50 °F 26 °F (1957)
Cooling Degree Days 4    
Growing Degree Days 18 (Base 50)    
Moisture  
Dew Point 66 °F    
Average Humidity 90    
Maximum Humidity 97    
Minimum Humidity 76    
Precipitation  
Precipitation 0.00 in - - ()
Sea Level Pressure  
Sea Level Pressure 30.10 in    
Wind  
Wind Speed 5 mph (North)    
Max Wind Speed 15 mph    
Max Gust Speed 21 mph    
Visibility 9 miles    
Events Rain    
Averages and records for this station are not official NWS values.
T = Trace of Precipitation, MM = Missing Value Source: NWS Daily Summary

Daily Weather History Graph

Daily Weather History Graph

Search for Another Location

Airport or City:

Trip Planner

Search our weather history database for the weather conditions in past years. The results will help you decide how hot, cold, wet, or windy it might be!

Date:

Astronomy

Sep. 29, 2015 Rise Set
Actual Time 6:35 AM EDT 6:26 PM EDT
Civil Twilight 6:07 AM EDT 6:54 PM EDT
Nautical Twilight 5:35 AM EDT 7:26 PM EDT
Astronomical Twilight 5:02 AM EDT 7:59 PM EDT
Moon 7:38 PM EDT (9/29) 8:14 AM EDT (9/29)
Length of Visible Light 12h 46m
Length of Day
11h 51m
Waning Gibbous, 96% of the Moon is Illuminated
Sep 29
Waning Gibbous
Oct 4
Last Quarter
Oct 12
New
Oct 20
First Quarter
Oct 27
Full

Hourly Weather History & Observations

Time (EDT) Temp. Dew Point Humidity Pressure Visibility Wind Dir Wind Speed Gust Speed Precip Events Conditions
12:33 AM 69.1 °F 66.9 °F 93% 30.15 in 10.0 mi South 4.6 mph - 0.00 in Rain Light Rain
12:56 AM 69.1 °F 66.0 °F 90% 30.16 in 10.0 mi South 4.6 mph - 0.00 in   Overcast
1:31 AM 68.0 °F 66.0 °F 93% 30.16 in 10.0 mi South 5.8 mph - N/A   Overcast
1:47 AM 68.0 °F 66.0 °F 93% 30.16 in 10.0 mi South 4.6 mph - N/A   Overcast
1:56 AM 66.9 °F 66.0 °F 97% 30.16 in 10.0 mi South 3.5 mph - N/A   Overcast
2:11 AM 66.9 °F 64.9 °F 93% 30.15 in 9.0 mi South 3.5 mph - N/A   Overcast
2:49 AM 66.9 °F 66.0 °F 97% 30.14 in 9.0 mi South 3.5 mph - N/A   Scattered Clouds
2:56 AM 66.9 °F 66.0 °F 97% 30.15 in 10.0 mi SSW 3.5 mph - N/A   Partly Cloudy
3:56 AM 63.0 °F 62.1 °F 97% 30.13 in 7.0 mi Calm Calm - N/A   Partly Cloudy
4:56 AM 62.1 °F 61.0 °F 96% 30.13 in 9.0 mi Calm Calm - N/A   Overcast
5:37 AM 63.0 °F 61.0 °F 93% 30.13 in 2.5 mi Calm Calm - N/A   Overcast
5:45 AM 62.1 °F 61.0 °F 96% 30.13 in 8.0 mi Calm Calm - N/A   Overcast
5:56 AM 62.1 °F 61.0 °F 96% 30.13 in 8.0 mi Calm Calm - N/A   Overcast
6:56 AM 66.0 °F 64.9 °F 96% 30.14 in 8.0 mi Calm Calm - N/A   Mostly Cloudy
7:56 AM 70.0 °F 68.0 °F 93% 30.13 in 10.0 mi SSE 4.6 mph - N/A   Mostly Cloudy
8:56 AM 71.1 °F 66.9 °F 87% 30.14 in 10.0 mi South 9.2 mph - N/A   Clear
9:56 AM 72.0 °F 66.9 °F 84% 30.14 in 10.0 mi SSW 10.4 mph 18.4 mph N/A   Mostly Cloudy
10:56 AM 73.9 °F 68.0 °F 82% 30.12 in 10.0 mi SSW 9.2 mph - N/A   Scattered Clouds
10:58 AM 73.9 °F 68.0 °F 82% 30.12 in 10.0 mi South 9.2 mph - N/A   Mostly Cloudy
11:56 AM 73.9 °F 68.0 °F 82% 30.11 in 10.0 mi South 9.2 mph - N/A   Mostly Cloudy
12:56 PM 75.0 °F 68.0 °F 79% 30.10 in 10.0 mi South 15.0 mph 19.6 mph N/A   Mostly Cloudy
1:56 PM 73.0 °F 66.9 °F 81% 30.07 in 10.0 mi South 12.7 mph 20.7 mph N/A   Mostly Cloudy
2:56 PM 73.9 °F 69.1 °F 85% 30.06 in 10.0 mi SSE 9.2 mph - N/A   Overcast
3:56 PM 75.9 °F 68.0 °F 76% 30.05 in 10.0 mi South 11.5 mph 18.4 mph N/A   Overcast
4:56 PM 73.9 °F 68.0 °F 82% 30.04 in 10.0 mi South 11.5 mph 19.6 mph N/A   Clear
5:56 PM 72.0 °F 68.0 °F 87% 30.03 in 10.0 mi South 8.1 mph - N/A   Overcast
6:56 PM 71.1 °F 68.0 °F 90% 30.03 in 10.0 mi South 5.8 mph - N/A   Clear
7:56 PM 70.0 °F 66.9 °F 90% 30.03 in 10.0 mi SSE 5.8 mph - N/A   Overcast
8:56 PM 70.0 °F 66.9 °F 90% 30.03 in 10.0 mi Variable 4.6 mph - N/A   Overcast
9:56 PM 70.0 °F 68.0 °F 93% 30.02 in 9.0 mi South 5.8 mph - N/A   Mostly Cloudy
10:20 PM 70.0 °F 68.0 °F 93% 30.01 in 9.0 mi South 5.8 mph - N/A   Mostly Cloudy
10:32 PM 70.0 °F 68.0 °F 93% 30.01 in 9.0 mi South 4.6 mph - N/A   Mostly Cloudy
10:56 PM 70.0 °F 68.0 °F 93% 30.01 in 9.0 mi Variable 6.9 mph - N/A   Mostly Cloudy
11:56 PM 71.1 °F 69.1 °F 93% 30.00 in 9.0 mi South 5.8 mph - N/A   Overcast